Погода в Оклахома-Сити

США     35°27′38″N   97°32′27″W
темп.,
°C
ветер,
м/с
пор.,
м/с
влажн.,
%
обл.,
%
осадки,
мм/ч
давл.,
гПа
погр.,
м
19 апреля, пн
пн1901:00+8ю33560 0.0 101927
04:00+7юз47590 0.0 101886
07:00+6юз48600 0.0 1018116
10:00+15юз68450 0.0 1017343
13:00+20ююз56320 0.0 10151509
16:00+22юз56265 0.0 10122866
19:00+20ю33411 0.0 101165
22:00+13ююв595038 0.0 1012130
20 апреля, вт
вт2001:00+10всв13695 0.0 101356
04:00+5ссв7108118 0.0 1016381
07:00+3с91270100 0.0 1020694
10:00+2с91481100 0.0 1023839
13:00+5с91267100 0.1 10241305
16:00+6с91159100 0.1 10251528
19:00+7ссв68525 0.1 10251342
22:00+2в22700 0.0 102728
21 апреля, ср
ср2101:00+1ю22745 0.0 102815
04:00+1з237492 0.0 102831
07:00+2зюз3365100 0.0 102772
10:00+7зсз3451100 0.0 1029367
13:00+12ссз34405 0.1 10271272
16:00+13с3337100 0.0 10241797
19:00+12св3451100 0.0 1023374
22:00+7всв3658100 0.0 1024111
22 апреля, чт
чт2201:00+7вюв3656100 0.0 1024112
04:00+7вюв3856100 0.0 1023227
07:00+7вюв3760100 0.0 1024236
10:00+8вюв4965100 0.0 1024439
13:00+10юв61064100 0.0 1022733
16:00+9юв61077100 0.3 1020754
19:00+8юв51185100 0.8 1019653
22:00+8юв51288100 0.2 1019565
23 апреля, пт
пт2301:00+9юв71590100 0.3 1017569
04:00+10ююв61489100 0.0 1014565
07:00+10ююв61393100 0.3 1014504
10:00+11ююв61297100 0.6 1012490
13:00+12ююв61396100 2.4 1010571
16:00+13ююв51297100 1.8 1007563
19:00+13ююв71598100 4.3 1006572
22:00+14юв51298100 1.8 1007651